EHI
0 0 0 0 0 0 0 0 0 0 0 2 4 6 9 11 13 15 18 22 25 25 24 22 24 25 24 23 23 24 24 23 19 15 13 13 13 12 10 9 6 3 1 0
0 0 0 0 0 0 0 0 0 0 1 3 5 7 9 11 14 16 17 20 23 24 22 21 22 24 23 22 23 24 24 23 20 16 14 14 13 12 11 9 6 4 3 2
0 0 0 0 0 0 0 0 0 1 3 5 7 9 10 12 14 17 18 20 22 22 20 18 19 22 23 23 23 22 21 20 18 15 14 12 11 11 10 8 7 6 6 6
0 0 0 0 0 0 1 1 1 3 4 7 9 10 11 12 14 17 19 20 21 21 19 17 17 21 23 22 21 19 16 15 13 13 11 8 6 7 7 7 7 8 8 8
0 0 0 0 0 0 1 2 2 3 4 7 9 9 8 10 13 16 18 19 18 18 19 18 17 18 18 18 17 16 13 10 9 9 7 3 2 4 6 7 8 8 8 7
0 0 0 0 0 0 1 2 2 2 3 5 6 6 7 8 12 14 15 15 13 15 18 18 17 15 14 14 14 14 11 8 7 5 2 1 2 4 6 9 10 9 7 6
0 0 0 0 0 0 0 0 0 1 1 3 5 6 7 9 11 12 12 12 12 13 17 18 17 16 14 12 11 11 9 7 5 2 1 2 3 4 6 9 9 8 7 5
0 0 0 0 0 0 0 0 0 0 1 4 8 11 11 11 12 12 12 13 13 15 17 17 17 17 15 13 11 10 10 9 6 4 3 4 5 5 6 7 7 7 6 4
1 1 1 1 1 1 0 0 0 2 4 8 13 16 15 13 12 13 15 16 17 18 18 17 15 14 15 15 15 14 12 10 7 6 6 6 6 6 6 6 6 6 5 4
4 3 3 4 3 2 1 1 3 6 9 14 18 19 17 15 14 16 18 20 20 19 18 16 13 12 14 16 18 17 14 11 9 7 7 6 6 6 6 6 6 6 5 4
4 4 4 4 4 3 2 4 9 12 14 17 18 18 16 15 16 17 18 20 20 18 16 14 14 14 14 15 17 17 15 12 10 8 7 6 5 5 5 6 6 6 5 4
2 2 3 4 4 4 5 7 11 14 15 15 14 14 15 15 15 16 17 17 17 16 14 15 17 16 14 13 14 15 14 12 10 8 7 5 4 4 4 4 4 4 3 3
1 1 3 4 5 6 7 9 12 13 14 13 11 11 13 15 14 15 15 14 14 12 12 14 16 15 13 11 12 12 12 11 8 6 5 4 3 3 3 3 3 2 1 1
2 2 2 3 5 6 9 12 14 14 14 14 12 11 13 14 15 14 13 12 11 10 10 11 11 11 10 9 8 9 9 9 7 6 5 3 3 2 2 3 4 3 1 0
2 1 2 4 5 7 11 15 16 15 14 13 12 12 12 12 12 11 10 10 10 10 9 8 7 7 7 6 5 5 6 6 6 6 5 3 2 1 1 2 4 4 1 0
1 1 3 5 6 7 11 14 14 13 11 11 11 10 10 9 7 6 7 8 9 9 8 6 5 4 5 6 4 3 3 4 5 6 6 4 3 2 1 2 3 3 1 0
0 2 4 6 6 8 10 12 12 11 10 9 9 7 6 5 3 2 4 6 7 8 7 5 4 3 4 6 5 2 1 2 3 5 5 4 3 3 3 3 3 2 1 0
1 3 5 6 6 7 9 10 9 9 9 8 6 5 4 3 1 1 2 4 5 5 4 4 3 3 4 5 4 2 1 1 1 3 4 3 3 3 3 3 3 2 1 0
2 3 5 6 6 6 6 7 8 7 7 7 5 2 1 1 0 0 1 2 3 3 3 3 3 3 3 3 2 1 0 0 0 1 3 3 3 3 3 3 2 1 0 0
1 2 5 7 6 4 4 5 6 6 6 5 4 1 0 0 0 0 1 3 3 3 3 3 3 3 2 1 0 0 0 0 0 1 2 3 3 2 2 2 1 0 0 0
1 2 5 7 6 5 5 5 6 6 5 4 3 2 0 0 0 1 2 3 3 3 3 3 3 2 1 0 0 0 0 0 0 1 2 2 1 1 1 1 0 0 0 0
2 4 5 5 6 6 6 7 6 5 4 3 3 2 0 0 1 2 3 3 3 3 3 3 2 1 0 0 0 0 0 0 0 0 1 1 0 0 0 0 0 0 0 0
4 4 4 4 4 4 5 6 5 4 3 3 3 2 1 1 2 3 3 2 1 1 2 2 1 0 0 0 0 0 0 0 0 0 0 0 0 0 0 0 0 0 0 0
4 4 3 3 3 3 3 4 4 4 3 3 3 2 1 1 2 2 2 1 0 0 1 1 0 0 0 0 0 0 0 0 0 0 0 0 0 0 0 0 0 0 0 0
4 3 3 3 2 2 2 2 3 3 3 2 1 1 0 1 1 1 1 0 0 0 0 0 0 0 0 0 0 0 0 0 0 0 0 0 0 0 0 0 0 0 0 0
3 2 1 1 1 1 1 1 1 1 1 1 0 0 0 0 0 0 0 0 0 0 0 0 0 0 0 0 0 0 0 0 0 0 0 0 0 0 0 0 0 0 0 0
3 1 0 0 1 0 0 0 0 0 0 0 0 0 0 0 0 0 0 0 0 0 0 0 0 0 0 0 0 0 0 0 0 0 0 0 0 0 0 0 0 0 0 0
Wind_Speed
3 3 1 1 3 3 1 4 5 5 4 6 5 4 3 3 3 4 4 5 6 5 4 4 5 4 4 4 4 5 5 5 5 4 3 3 4 3 3 3 4 3 3 3
3 2 2 3 4 3 2 0 2 2 2 4 2 3 3 3 4 4 3 3 4 5 5 5 5 4 4 4 4 4 5 5 5 4 3 4 4 4 3 3 3 3 3 3
2 3 3 3 4 1 1 1 3 4 4 1 2 3 4 3 4 4 3 3 4 4 5 6 5 4 4 4 3 3 3 3 3 3 3 3 4 3 4 4 3 3 3 3
1 2 3 7 3 3 4 2 1 3 3 4 4 3 3 4 5 3 2 2 2 2 2 2 3 3 3 3 3 3 2 2 2 3 3 2 2 3 4 3 3 3 3 3
3 2 4 5 3 2 3 2 1 3 3 3 3 5 3 0 3 4 3 3 2 3 3 2 2 3 3 2 2 2 2 2 2 3 3 3 3 4 3 3 3 3 3 3
3 3 4 6 4 0 5 1 3 1 3 3 4 3 3 2 2 2 3 3 2 2 3 3 1 3 3 2 2 2 2 2 2 2 2 3 4 4 3 3 3 3 3 3
4 3 5 5 4 4 3 5 4 0 2 3 3 5 4 2 1 2 3 3 3 3 3 2 2 3 3 1 2 2 1 1 2 2 2 3 2 2 2 2 2 2 3 2
3 3 6 5 3 2 4 2 1 2 1 2 2 2 2 2 3 3 3 3 3 3 2 1 2 3 2 1 2 0 0 0 1 1 2 1 1 1 1 1 1 2 2 2
5 6 5 1 2 2 3 2 0 1 1 2 1 1 2 2 2 2 2 3 2 3 2 1 1 3 3 1 0 1 1 1 1 1 1 0 1 1 1 1 1 2 2 2
1 2 2 2 1 1 1 1 1 1 1 2 2 2 2 2 1 1 1 2 2 3 2 0 1 1 1 1 1 1 0 1 1 1 1 1 0 1 1 1 1 1 2 2
1 3 3 3 3 3 2 1 2 2 2 2 3 2 2 2 1 0 0 0 2 2 1 0 0 0 1 1 1 1 0 1 1 1 1 0 1 1 2 2 3 3 3 3
5 6 3 5 5 3 2 1 0 1 2 1 2 2 2 1 1 1 1 1 1 1 1 0 0 0 1 0 1 1 0 1 1 1 1 0 0 2 3 2 3 4 4 4
5 4 4 4 3 3 1 0 0 1 2 1 1 2 1 1 0 0 1 1 2 1 1 0 0 1 1 1 1 1 1 2 1 1 1 1 1 1 2 4 3 2 3 3
2 1 2 3 3 2 1 2 3 3 2 2 2 2 1 1 1 1 1 1 2 2 1 1 0 2 2 1 0 1 1 2 1 1 2 2 2 2 2 2 2 3 3 2
4 3 4 4 2 0 1 2 3 2 2 2 2 1 1 2 2 0 1 1 2 2 1 1 1 3 3 1 1 1 1 1 1 1 1 2 2 1 1 2 1 1 1 2
4 3 2 1 2 1 1 1 2 1 1 1 1 1 1 2 1 1 0 1 2 0 1 1 2 3 2 1 1 1 1 2 1 1 1 1 1 1 1 1 1 0 0 1
3 4 3 2 2 2 2 2 2 2 2 2 1 1 2 2 2 1 1 1 1 1 1 1 2 2 2 1 1 1 1 1 0 0 1 1 1 1 1 1 0 0 1 1
4 5 4 3 3 2 2 2 2 3 3 2 2 1 2 2 1 1 1 0 1 2 2 2 2 2 2 2 1 0 0 0 0 0 1 0 1 1 1 1 1 1 1 1
3 3 3 3 3 2 2 2 2 2 3 3 2 2 2 2 2 2 1 0 0 1 3 2 2 1 2 2 1 0 1 1 1 1 0 1 2 2 1 1 1 1 1 1
2 1 0 1 1 2 2 3 2 2 2 2 2 2 1 1 2 1 1 1 2 2 2 1 1 1 1 1 1 1 1 1 1 1 1 2 2 2 2 1 1 1 1 1
2 1 0 1 1 1 2 3 3 2 2 2 3 3 3 2 2 2 1 1 2 1 0 0 1 1 1 1 2 1 1 2 2 2 2 2 2 2 2 2 2 2 2 2
2 1 1 0 0 1 2 1 2 2 2 1 2 2 2 2 1 1 1 2 2 1 0 0 1 1 2 2 2 2 2 2 2 2 2 2 2 2 2 2 2 2 2 2
2 2 1 0 0 0 1 1 1 2 2 2 2 3 2 2 2 2 1 1 1 1 1 1 1 3 4 3 3 3 2 3 3 3 3 2 2 2 2 2 2 2 2 2
2 2 2 1 1 1 1 1 1 0 1 1 1 2 3 2 1 0 1 2 2 2 1 2 4 5 5 3 3 3 2 3 3 3 2 2 2 2 2 2 2 2 2 3
2 2 1 1 1 1 1 0 1 1 1 1 1 1 1 2 2 2 2 2 2 3 2 3 4 5 4 3 3 2 2 2 2 2 2 2 2 2 2 2 2 2 2 2
2 2 1 1 1 1 1 0 1 1 1 2 1 1 1 2 2 2 2 2 3 3 2 2 2 3 2 2 2 2 2 2 3 3 3 2 2 2 2 2 3 2 2 2
2 2 1 1 1 0 0 1 1 1 1 2 2 1 1 2 2 3 3 2 2 2 2 1 2 2 2 2 2 2 2 2 2 2 2 2 2 1 1 2 1 1 2 2
Wind_Direction
213 227 149 317 310 329 1 190 184 215 208 231 212 187 186 162 131 110 110 128 135 138 139 138 137 146 160 163 169 171 173 182 194 195 188 180 180 187 190 194 206 212 219 233
334 335 15 346 322 322 340 136 153 130 265 253 214 115 108 129 136 127 125 140 140 141 146 157 160 166 169 177 180 170 176 190 191 184 183 185 193 192 195 209 217 214 226 239
285 310 26 312 264 230 32 25 152 176 215 194 77 111 148 154 142 136 144 148 149 162 174 177 177 177 176 180 169 164 177 181 177 183 193 204 203 196 204 213 214 219 224 220
187 37 226 244 252 140 111 32 124 153 168 156 161 160 144 147 140 124 134 150 177 170 178 181 172 166 161 149 149 158 164 172 180 184 196 204 205 213 214 212 215 221 223 224
135 177 265 291 289 152 131 323 298 151 139 136 137 77 22 45 139 151 157 160 183 175 171 154 159 157 137 140 154 168 186 196 201 199 202 204 217 228 222 213 220 223 217 216
137 157 224 253 287 51 99 320 302 145 140 129 101 105 259 262 153 141 144 149 147 135 114 123 147 137 132 160 174 204 217 214 210 198 206 216 225 229 223 215 218 220 230 223
165 192 247 267 310 37 106 236 289 329 145 139 152 191 215 204 133 128 125 122 119 123 124 137 146 125 124 144 220 231 228 214 214 218 228 231 236 241 227 227 227 229 233 242
155 176 246 294 33 107 203 237 341 18 69 102 140 160 154 133 120 107 104 108 109 111 108 113 121 125 133 197 242 217 127 233 237 243 245 243 248 265 235 211 229 241 246 268
176 201 236 275 133 198 174 137 58 66 67 115 121 146 120 117 117 114 119 123 118 115 96 40 102 136 148 219 191 106 63 288 260 274 286 265 215 251 255 204 211 238 236 253
67 265 278 316 347 304 137 116 83 86 83 106 118 110 99 107 108 107 122 132 128 116 109 21 350 121 172 195 159 106 44 293 250 224 307 318 324 240 215 225 231 242 238 249
298 273 328 325 325 328 347 21 56 60 83 108 123 127 132 138 144 161 127 101 122 128 137 220 317 150 180 176 128 109 305 287 274 237 232 282 320 291 240 226 210 208 223 220
228 234 210 255 281 303 333 321 39 74 47 67 123 139 116 131 150 159 146 117 111 109 113 180 134 205 250 223 151 162 246 285 269 247 248 223 297 333 327 283 248 229 221 216
224 236 217 246 284 298 299 327 30 104 121 89 65 104 107 123 84 91 126 118 123 125 119 94 72 291 278 249 185 209 243 263 268 244 217 220 218 251 312 323 327 285 253 251
254 272 292 278 277 303 56 76 73 69 67 71 76 82 93 100 73 70 139 149 130 115 96 83 46 288 285 279 266 259 255 259 258 241 223 218 218 227 245 262 302 322 324 321
276 245 230 245 274 350 57 75 73 73 68 49 53 68 107 121 127 112 162 131 108 93 55 348 300 287 289 291 289 273 266 269 262 253 225 215 222 232 267 257 243 279 345 346
272 285 267 215 216 207 147 127 130 142 126 123 93 112 114 115 112 66 46 112 115 128 279 283 280 280 286 282 264 263 257 255 252 238 224 224 225 240 258 240 223 208 338 307
260 276 278 241 220 222 205 180 169 180 148 132 157 129 109 92 71 29 5 41 147 233 263 265 278 295 311 310 277 253 258 276 313 243 220 211 206 234 203 162 150 156 268 270
231 236 233 214 195 196 213 205 184 181 180 179 157 137 136 141 170 245 290 321 359 342 324 304 314 327 329 331 300 248 285 49 11 278 248 169 149 143 133 129 132 114 346 358
253 251 242 224 193 181 201 209 208 200 183 169 174 189 189 187 199 220 257 215 180 313 305 309 324 327 316 314 332 53 75 53 27 18 62 100 100 94 95 89 76 51 28 20
260 238 169 182 181 179 196 215 208 207 197 173 171 176 198 215 207 214 249 251 252 247 261 282 340 342 320 324 7 67 75 65 55 40 55 79 95 94 84 71 62 54 38 26
347 8 132 177 216 219 214 207 189 187 199 191 178 191 210 218 210 189 174 243 276 255 258 342 26 14 352 15 44 70 75 71 65 67 78 82 83 81 75 61 45 37 29 25
1 2 13 32 117 293 281 230 171 172 179 194 188 192 200 222 228 191 195 207 221 203 142 90 35 43 42 52 59 66 67 75 75 66 73 82 85 81 78 70 56 43 32 34
309 299 301 276 158 133 30 50 123 168 197 212 201 191 189 201 182 162 183 234 170 147 120 124 82 67 62 61 63 69 70 71 73 69 70 76 78 80 76 64 53 47 39 34
303 287 272 222 136 101 61 344 358 302 218 191 195 178 159 148 129 157 152 154 142 113 88 90 79 69 67 66 68 67 70 70 68 67 65 65 66 68 72 68 53 44 43 41
308 297 261 162 152 182 202 184 34 35 84 102 100 110 139 148 151 155 135 140 124 93 77 79 76 72 70 68 72 70 67 67 69 71 66 66 67 68 67 67 58 47 39 32
331 312 251 209 195 194 195 173 155 166 117 100 80 85 108 116 121 120 110 119 119 108 96 87 84 76 71 70 73 67 57 56 59 58 56 59 70 72 69 66 58 49 33 25
354 17 39 9 334 330 164 177 170 170 151 139 134 128 128 124 120 116 110 109 109 97 87 81 85 89 85 82 78 72 68 69 67 66 66 65 65 65 69 65 61 51 37 27